Home   Weather   Nashville   Past weeks

Flag for USA Past Weather in Nashville, Tennessee, USA — Yesterday and Last 2 Weeks

Now
78 °F

Broken clouds.


Feels Like: 80 °F
Forecast: 69 / 82 °F
Wind: 12 mph from West

Location: Nashville International Airport

Current Time: May 28, 2017 at 3:18:57 pm

Latest Report: May 28, 2017 at 1:53 pm


Visibility: 10 mi

Pressure: 29.89 "Hg

Humidity: 56%

Dew Point: 61 °F

Location of NashvilleLocation

Past Weather in Nashville — Graph

°F

Nashville Temperature Yesterday

Maximum temperature yesterday: 83 °F (at 12:53 pm)
Minimum temperature yesterday: 65 °F (at 10:22 pm)
Average temperature yesterday: 74 °F

High & Low Weather Summary for the Past Weeks

 TemperatureHumidityPressure
High91 °F (May 19, 3:53 pm)97% (May 27, 11:53 pm)30.16 "Hg (May 27, 11:53 pm)
Low52 °F (May 14, 5:53 am)31% (May 14, 2:53 pm)29.40 "Hg (May 24, 10:53 am)
Average72 °F68%29.90 "Hg
* Reported May 13 12:53 pm — May 28 12:53 pm, Nashville. Weather by CustomWeather, © 2017

Note: Actual official high and low records may vary slightly from our data, if they occured in-between our weather recording intervals... More about our weather records

Advertising

Nashville Weather History for the Previous 24 Hours

Scroll right to see more
 ConditionsComfort  
Time TempWeatherWind HumidityBarometerVisibility
12:53 pm
Sun, May 28
78 °FBroken clouds.15 mph58%29.89 "Hg10 mi
11:53 am74 °FPartly sunny.6 mph64%29.88 "Hg10 mi
10:53 am71 °FPartly sunny.8 mph73%29.89 "Hg10 mi
10:42 am72 °FBroken clouds.7 mph73%29.91 "Hg10 mi
9:53 am70 °FBroken clouds.8 mph79%29.84 "Hg10 mi
9:41 am69 °FBroken clouds.8 mph84%29.88 "Hg10 mi
9:04 am68 °FCloudy.6 mph84%29.93 "Hg10 mi
8:53 am68 °FCloudy.3 mph90%29.93 "Hg10 mi
7:53 am66 °FMore clouds than sun.No wind90%29.88 "Hg10 mi
6:53 am66 °FLight rain. More clouds than sun.13 mph87%29.89 "Hg10 mi
5:53 am65 °FOvercast.10 mph91%29.79 "Hg10 mi
4:53 am65 °FMore clouds than sun.6 mph91%29.83 "Hg10 mi
3:53 am65 °FOvercast.10 mph91%29.82 "Hg10 mi
2:53 am65 °FLight rain. Mostly cloudy.12 mph94%29.88 "Hg9 mi
2:26 am65 °FThunderstorms. Overcast.14 mph94%29.92 "Hg10 mi
1:53 am65 °FLight rain. Mostly cloudy.5 mph94%29.97 "Hg7 mi
12:53 am65 °FRain. Fog.9 mph94%29.97 "Hg5 mi
11:53 pm
Sat, May 27
65 °FOvercast.8 mph97%29.92 "Hg10 mi
10:53 pm66 °FOvercast.No wind90%29.92 "Hg10 mi
10:22 pm65 °FOvercast.6 mph94%29.92 "Hg10 mi
9:53 pm66 °FThunderstorms. Overcast.5 mph90%29.90 "Hg10 mi
8:53 pm66 °FThunderstorms. Overcast.6 mph90%29.95 "Hg10 mi
7:53 pm67 °FThunderstorms. Fog.9 mph90%29.93 "Hg6 mi
6:53 pm77 °FOvercast.3 mph85%29.86 "Hg10 mi
5:53 pm79 °FPartly sunny.3 mph82%29.85 "Hg10 mi
5:20 pm78 °FBroken clouds.6 mph84%29.88 "Hg10 mi
4:53 pm75 °FThundershowers. Partly sunny.6 mph88%29.86 "Hg10 mi
4:27 pm79 °FThunderstorms. Mostly cloudy.16 mph77%29.91 "Hg9 mi
4:14 pm79 °FThundershowers. Mostly cloudy.5 mph79%29.90 "Hg10 mi
3:53 pm79 °FLight rain. Partly sunny.No wind79%29.87 "Hg10 mi
3:17 pm81 °FPartly sunny.3 mph74%29.89 "Hg10 mi
Weather by CustomWeather, © 2017

See weather overviewHow to use our weather pages